Wind_Speed
16 15 14 13 13 13 13 12 11 10 9 8 7 7 7 7 6 6 6 6 6 5 5 4 4 6 7 7 7 6 6 6 6 5 6 6 6 7 8 9 11 11 11 12 13 12 12 11 11
15 14 14 14 16 16 15 14 11 10 10 9 8 7 7 6 6 6 6 7 7 7 6 5 6 7 7 8 7 6 6 6 6 5 5 6 6 7 9 10 10 10 10 11 11 11 11 11 11
15 15 14 16 18 17 16 15 12 11 11 10 9 8 7 6 7 7 7 7 8 8 7 8 8 8 8 7 7 7 6 6 7 6 6 7 7 7 9 10 10 11 11 11 11 11 11 11 10
14 14 15 17 17 17 17 15 14 12 12 11 10 9 7 7 7 7 7 8 9 9 9 9 8 8 8 8 8 8 8 7 7 7 7 8 7 8 9 10 11 11 11 11 11 11 11 11 10
15 14 16 17 18 17 17 16 15 13 12 12 11 10 8 7 7 8 8 9 9 10 9 9 8 9 8 8 8 8 8 8 8 8 9 10 10 10 10 10 11 11 11 10 11 11 11 10 9
14 15 16 16 17 17 16 16 14 13 13 12 11 10 9 8 8 8 8 9 9 9 9 9 9 9 8 8 7 8 9 9 9 9 9 10 10 10 10 10 10 11 11 11 11 10 10 9 8
14 16 17 17 16 16 16 16 15 14 14 13 12 11 10 9 9 8 8 9 9 9 9 10 10 9 9 9 8 9 10 10 9 10 9 10 10 10 10 10 10 11 11 10 10 9 9 8 8
14 16 17 16 15 15 15 15 15 14 15 14 13 12 11 10 10 9 9 9 9 8 9 10 9 9 9 9 9 9 9 10 9 9 9 9 9 9 10 10 11 10 10 10 9 9 8 7 6
14 15 16 15 13 13 14 14 15 15 15 15 14 13 11 11 11 11 10 10 9 9 9 10 10 9 9 10 10 10 10 9 9 10 10 10 9 10 10 10 10 10 9 9 8 8 7 5 5
13 13 14 14 12 13 13 13 15 16 15 15 15 14 12 12 12 11 11 10 9 9 10 10 10 9 9 9 9 9 10 10 10 10 10 10 10 10 10 10 10 9 8 8 7 6 6 5 4
11 12 13 13 13 12 13 13 14 15 15 14 14 13 12 12 12 12 11 10 10 10 9 9 9 9 9 9 9 9 10 10 10 10 9 9 9 8 9 10 9 8 7 7 6 5 4 4 3
9 11 12 13 13 12 12 13 14 15 14 14 14 13 12 12 12 12 11 11 10 10 10 9 9 9 9 8 7 8 9 9 9 10 9 9 9 8 8 9 9 8 7 6 5 4 4 3 3
7 8 9 10 12 13 13 13 13 13 13 13 13 13 13 13 12 11 11 11 10 10 9 9 9 9 9 8 7 7 8 8 9 9 9 8 8 8 7 8 8 7 6 5 5 4 3 2 2
6 6 7 8 10 11 12 12 12 13 12 13 13 13 13 13 12 11 11 11 10 10 9 9 9 9 8 8 8 8 7 8 8 8 8 7 7 7 7 7 6 6 6 5 4 4 3 3 2
6 5 6 6 7 9 10 10 11 12 12 12 12 12 12 12 12 11 11 11 10 10 9 9 9 8 8 8 8 8 7 7 7 8 7 7 7 7 6 6 6 6 5 5 4 3 2 2 2
5 4 4 5 6 7 7 9 10 11 12 12 11 12 11 11 11 11 11 11 10 10 9 9 9 9 8 8 8 7 7 7 7 7 7 6 6 6 5 5 5 5 4 4 3 3 2 2 2
4 4 4 4 5 5 5 8 10 10 10 11 11 11 11 11 11 11 11 11 10 10 9 9 9 8 8 8 7 7 7 7 6 6 6 6 5 5 4 5 5 4 4 4 3 3 2 2 3
4 3 4 3 2 3 4 6 8 9 9 10 11 10 10 10 10 10 10 10 10 9 9 9 9 8 8 8 7 7 7 7 6 6 5 5 5 4 4 4 4 4 3 3 3 2 3 3 4
4 3 1 1 1 2 2 4 5 7 8 9 10 10 10 10 10 10 10 9 9 8 8 8 9 8 8 7 7 7 7 6 6 5 4 5 4 3 3 2 2 2 3 2 2 3 3 3 4
6 3 1 2 2 3 1 2 3 4 5 7 8 8 9 9 9 9 10 9 9 8 7 8 8 8 8 7 7 7 6 6 5 5 4 3 3 3 2 2 2 2 1 1 2 3 3 4 3
6 4 4 4 4 4 2 0 2 2 3 5 5 6 7 7 7 7 8 8 7 7 7 7 8 7 7 7 6 6 5 5 4 4 3 3 3 2 2 2 3 2 1 1 2 3 3 3 4
7 6 6 8 8 6 6 5 2 2 1 2 4 5 5 6 6 5 6 6 6 5 5 6 6 6 6 6 6 5 4 4 3 3 3 2 2 2 1 2 1 1 1 1 2 3 4 4 4
8 8 9 9 10 10 8 7 6 4 3 1 2 3 3 4 5 5 5 5 5 4 4 4 4 5 5 5 5 5 4 3 3 2 2 2 1 0 1 1 1 2 1 1 2 3 5 5 6
11 11 11 11 11 12 9 9 8 5 4 2 2 3 3 3 4 4 3 3 4 3 3 3 3 3 4 3 3 3 4 4 3 3 2 2 1 2 2 2 2 2 3 3 3 4 6 6 7
13 14 14 14 12 11 9 10 8 6 6 5 3 3 4 4 4 4 4 3 3 3 2 2 2 2 3 2 2 2 2 2 2 3 3 2 2 3 2 3 3 4 4 4 5 5 7 8 8
15 16 17 16 13 11 9 9 8 8 8 7 6 5 5 5 5 5 5 3 3 3 2 2 1 1 2 2 2 2 2 2 2 2 3 3 4 4 4 4 4 5 5 5 6 6 8 9 9
18 18 17 18 16 15 11 9 8 7 8 8 8 7 7 6 6 6 5 4 4 4 4 4 3 3 3 3 2 2 3 3 3 3 4 4 5 5 6 6 6 6 7 7 8 8 9 10 10
19 18 18 20 18 17 14 12 9 9 9 10 10 9 8 8 8 8 7 6 6 6 6 5 5 5 5 5 4 4 4 5 4 5 6 6 7 7 7 8 8 8 9 9 10 10 11 11 12
22 21 20 20 20 19 18 15 13 12 12 12 12 11 10 10 9 9 9 9 8 8 9 7 7 7 7 6 6 6 6 6 6 7 7 8 8 8 9 9 10 10 11 11 12 13 14 14 14
25 24 22 22 22 20 20 18 15 14 14 13 13 13 13 12 11 10 11 11 11 10 10 9 9 9 9 9 8 8 8 8 8 8 9 9 9 10 10 11 11 12 13 14 14 15 15 15 15
Wind_Direction
80 77 72 66 58 60 59 56 52 50 49 45 37 35 30 33 36 39 39 38 44 54 73 95 101 96 92 95 96 95 99 102 103 112 113 109 113 119 118 123 122 120 118 124 126 129 132 131 129
76 73 64 57 56 57 55 51 50 51 46 41 38 40 42 45 49 51 46 42 48 58 79 104 114 107 99 100 97 100 101 106 110 116 117 115 113 116 119 125 124 118 117 121 121 122 125 127 124
72 66 58 55 56 54 53 50 51 51 46 41 42 44 49 53 53 54 53 54 56 66 84 103 110 110 100 98 94 97 99 105 110 115 116 114 118 125 126 123 119 115 116 120 122 122 122 124 123
72 62 56 55 53 52 51 50 50 47 42 42 45 46 49 54 57 58 61 62 63 73 88 96 103 104 98 97 93 94 94 95 99 106 112 110 117 129 128 122 115 115 117 119 120 120 121 120 118
72 63 54 51 48 47 49 51 49 47 42 41 48 48 49 57 64 64 65 69 75 83 87 90 100 104 101 97 95 93 94 95 98 100 104 105 106 118 120 117 116 118 119 117 119 120 119 118 117
70 61 54 49 48 45 47 49 48 45 42 45 53 52 50 58 68 69 69 73 76 82 86 90 96 100 97 94 96 99 100 95 98 104 105 107 110 112 116 118 116 117 118 118 120 120 118 116 114
65 59 54 50 48 45 49 52 50 47 43 46 52 53 49 57 67 69 70 73 75 79 88 92 96 94 93 92 98 100 101 96 98 102 105 108 109 116 116 121 120 118 118 117 119 119 118 115 113
67 59 57 54 48 45 50 53 52 50 46 47 52 53 51 59 70 73 73 74 75 77 86 92 97 94 90 89 95 96 100 98 99 102 104 108 109 114 115 119 117 118 119 117 116 117 119 120 116
65 57 54 52 47 47 50 52 52 53 50 49 53 54 58 62 69 75 78 76 78 78 85 91 92 91 88 90 90 91 94 97 100 100 104 108 114 118 119 121 116 120 120 118 116 120 120 118 116
65 59 55 52 50 49 50 50 51 51 51 50 50 54 58 61 69 75 77 80 83 85 84 90 92 93 91 89 91 90 91 94 99 102 103 105 112 114 114 125 118 119 119 119 120 121 117 114 119
67 62 55 51 53 53 52 51 52 51 50 51 52 54 55 62 66 71 72 77 84 89 88 91 96 100 95 91 92 92 93 93 91 94 97 98 103 106 110 119 122 121 121 119 119 119 115 112 115
68 63 55 51 53 56 54 49 50 51 50 52 53 54 53 62 66 68 74 77 80 84 84 87 94 97 96 91 91 93 93 91 89 90 97 98 103 106 113 118 122 121 116 110 107 109 104 99 88
88 73 58 53 53 57 54 46 44 50 52 52 54 55 55 57 61 66 73 77 80 82 85 87 92 98 100 96 93 93 90 88 86 88 91 95 102 106 111 117 114 115 111 105 102 107 96 90 77
99 89 74 64 55 58 59 49 41 46 54 54 54 55 54 56 60 63 67 72 78 79 84 89 94 95 96 95 94 92 89 88 87 89 91 93 98 100 107 102 106 109 109 102 101 97 79 63 37
117 104 97 89 66 59 55 51 41 43 52 53 53 54 53 54 57 60 63 66 73 78 85 91 94 95 93 93 94 92 91 91 92 94 95 95 92 99 102 97 103 103 105 105 99 81 72 59 31
120 107 111 102 85 66 52 46 44 47 48 48 49 50 51 55 56 58 59 61 66 76 84 87 92 92 92 92 91 91 92 95 98 98 97 97 97 96 100 105 102 93 94 98 93 79 67 44 26
113 93 107 107 95 68 49 49 50 52 51 48 45 47 49 52 54 56 56 58 61 64 74 80 85 90 91 92 90 86 91 96 99 97 94 96 98 98 101 109 101 92 86 86 86 76 59 37 16
117 94 96 109 95 65 68 68 55 60 56 52 46 47 51 53 53 54 55 56 57 61 67 74 78 82 89 91 89 86 89 94 95 93 92 88 97 100 104 112 109 101 92 82 75 60 42 27 15
152 138 117 58 24 350 39 66 48 56 49 50 49 51 53 52 54 53 54 54 54 60 68 74 75 80 86 89 87 86 85 89 90 88 81 77 79 92 93 96 107 106 88 75 57 44 26 5 5
186 208 270 335 338 316 309 63 39 41 36 41 47 52 54 51 55 53 54 55 55 59 67 71 73 73 75 81 85 84 83 86 85 80 68 67 73 89 85 81 84 86 89 67 43 24 11 359 350
214 238 264 273 287 314 316 327 4 20 19 30 35 44 50 49 52 55 54 54 55 57 62 66 68 71 73 75 75 74 75 74 69 60 63 65 79 82 94 82 78 73 61 22 7 8 3 356 346
216 238 255 260 266 272 273 271 268 268 290 11 18 18 35 38 42 47 52 49 53 54 59 62 64 68 70 73 72 67 68 67 54 44 43 43 82 89 99 83 69 38 8 352 3 2 349 341 340
223 232 242 251 259 263 256 262 256 247 245 280 351 354 4 11 23 36 44 47 46 46 49 58 64 66 67 72 69 64 58 49 40 33 33 47 70 22 1 347 343 341 338 351 354 346 338 333 330
226 238 242 242 254 264 255 262 254 244 236 230 270 302 329 339 351 8 25 38 29 32 39 51 65 64 59 64 64 55 47 40 33 15 358 345 323 330 336 334 338 341 337 335 327 324 329 331 330
227 235 238 240 250 261 257 260 261 258 245 240 262 282 294 305 322 336 341 358 358 1 11 28 67 53 48 49 41 32 27 19 11 5 1 348 339 340 337 330 326 326 323 318 317 316 320 323 323
224 234 239 241 244 257 256 260 271 265 255 246 251 262 277 286 296 306 319 309 316 314 304 326 19 16 8 7 350 345 343 335 327 334 337 334 327 320 311 307 302 305 304 308 309 308 312 316 318
222 231 240 245 247 249 248 254 253 254 250 248 251 252 263 276 288 291 291 285 283 284 281 286 291 302 311 313 316 312 311 309 302 303 307 313 312 307 302 297 297 297 298 300 302 302 306 309 310
227 231 235 239 245 245 241 242 253 257 257 254 252 251 256 268 274 274 270 269 273 273 273 271 276 282 290 291 293 298 298 295 289 289 292 296 298 301 299 293 294 294 292 293 292 294 298 299 301
226 229 232 238 245 248 244 243 251 256 262 263 258 252 249 256 264 264 266 265 263 264 266 266 271 279 283 289 292 297 293 292 288 287 291 293 293 294 294 296 294 294 291 293 293 291 292 292 295
229 232 234 240 246 250 251 248 249 256 260 260 263 260 258 259 259 263 266 263 260 262 266 267 275 279 281 284 286 286 283 288 289 289 290 289 289 290 291 294 295 294 291 290 289 290 293 294 297
Height
5890 5890 5890 5890 5889 5888 5888 5887 5886 5886 5886 5885 5884 5883 5882 5882 5882 5883 5880 5878 5877 5875 5875 5875 5875 5875 5876 5876 5876 5877 5877 5877 5877 5877 5877 5877 5877 5877 5877 5877 5877 5878 5879 5880 5881 5882 5883 5885 5886
5892 5892 5893 5892 5890 5889 5889 5888 5887 5887 5887 5885 5884 5883 5883 5882 5881 5880 5879 5878 5876 5873 5872 5873 5875 5876 5877 5877 5877 5877 5877 5877 5877 5877 5877 5877 5878 5878 5879 5879 5879 5880 5881 5882 5883 5884 5885 5886 5887
5894 5894 5895 5893 5891 5891 5890 5889 5889 5888 5887 5886 5885 5884 5883 5882 5881 5880 5880 5878 5876 5873 5871 5872 5875 5877 5878 5878 5878 5878 5878 5878 5877 5877 5877 5878 5878 5879 5879 5880 5881 5882 5883 5884 5885 5886 5887 5888 5889
5896 5897 5896 5894 5892 5892 5892 5891 5890 5889 5888 5887 5886 5885 5884 5883 5882 5881 5880 5879 5877 5875 5873 5874 5876 5878 5879 5879 5879 5879 5879 5879 5878 5878 5878 5878 5879 5880 5881 5882 5883 5884 5885 5886 5887 5888 5889 5889 5890
5898 5898 5897 5895 5894 5894 5893 5892 5891 5890 5889 5888 5887 5885 5885 5883 5882 5882 5881 5881 5880 5879 5878 5878 5879 5880 5880 5880 5881 5880 5880 5880 5880 5879 5879 5880 5881 5882 5883 5884 5885 5885 5886 5887 5888 5889 5890 5891 5891
5900 5899 5898 5896 5896 5896 5895 5894 5893 5892 5890 5889 5888 5887 5886 5884 5883 5883 5883 5882 5882 5882 5881 5881 5882 5882 5882 5882 5882 5882 5882 5882 5881 5881 5881 5882 5883 5884 5885 5886 5887 5887 5888 5889 5890 5891 5891 5892 5892
5903 5900 5899 5899 5898 5898 5898 5896 5895 5894 5892 5891 5889 5888 5886 5885 5884 5884 5884 5884 5884 5884 5884 5884 5884 5884 5884 5884 5883 5883 5884 5884 5884 5884 5884 5884 5885 5886 5887 5887 5888 5889 5890 5891 5892 5893 5893 5893 5893
5903 5902 5901 5900 5900 5900 5899 5898 5897 5895 5894 5892 5891 5889 5888 5887 5886 5885 5885 5885 5885 5885 5885 5886 5886 5886 5885 5885 5885 5885 5885 5886 5886 5886 5886 5886 5887 5887 5888 5889 5889 5890 5891 5892 5893 5894 5894 5894 5894
5903 5904 5902 5902 5902 5901 5900 5900 5899 5897 5896 5894 5892 5891 5890 5889 5888 5887 5887 5887 5887 5887 5887 5887 5887 5887 5887 5887 5887 5887 5887 5887 5887 5887 5888 5888 5888 5889 5889 5890 5891 5892 5893 5893 5894 5895 5896 5896 5895
5904 5904 5904 5904 5904 5903 5902 5901 5900 5899 5897 5896 5894 5893 5892 5891 5890 5889 5889 5889 5889 5889 5888 5889 5889 5889 5889 5889 5889 5890 5889 5889 5889 5889 5890 5890 5890 5890 5891 5891 5892 5893 5894 5895 5895 5896 5896 5897 5896
5905 5905 5905 5905 5904 5904 5903 5903 5902 5901 5899 5898 5897 5896 5894 5893 5892 5891 5891 5890 5890 5890 5890 5890 5891 5891 5891 5891 5891 5891 5891 5891 5891 5891 5891 5892 5892 5892 5893 5893 5893 5894 5895 5896 5896 5897 5897 5897 5897
5907 5906 5906 5907 5906 5906 5905 5904 5903 5903 5902 5900 5899 5898 5896 5895 5894 5893 5893 5892 5892 5892 5892 5892 5892 5892 5893 5893 5893 5893 5893 5893 5893 5893 5893 5893 5894 5894 5894 5895 5895 5896 5896 5897 5897 5897 5897 5898 5898
5908 5908 5907 5907 5907 5907 5906 5905 5905 5904 5903 5902 5901 5900 5898 5897 5896 5895 5895 5894 5894 5893 5893 5893 5894 5894 5894 5894 5894 5894 5894 5895 5895 5895 5895 5895 5895 5895 5896 5896 5897 5897 5897 5897 5897 5898 5898 5898 5898
5909 5909 5909 5908 5908 5908 5907 5907 5907 5906 5905 5904 5902 5901 5900 5899 5898 5897 5896 5896 5895 5895 5895 5895 5895 5895 5895 5896 5896 5896 5896 5896 5896 5896 5896 5896 5896 5896 5897 5897 5898 5898 5898 5898 5898 5898 5898 5898 5898
5910 5910 5910 5910 5910 5910 5910 5909 5908 5907 5906 5905 5904 5903 5902 5901 5900 5899 5898 5897 5896 5896 5896 5896 5896 5896 5897 5897 5897 5897 5897 5898 5898 5898 5897 5897 5897 5898 5898 5898 5899 5899 5899 5899 5898 5898 5898 5898 5897
5911 5911 5911 5911 5910 5911 5912 5910 5909 5908 5907 5906 5906 5905 5904 5903 5902 5901 5900 5899 5898 5897 5897 5897 5897 5898 5898 5898 5898 5898 5899 5899 5899 5899 5899 5898 5899 5899 5899 5899 5899 5899 5899 5899 5899 5899 5898 5898 5897
5911 5911 5911 5911 5911 5911 5911 5911 5910 5909 5908 5908 5907 5907 5905 5905 5904 5903 5902 5901 5900 5899 5899 5899 5899 5899 5899 5899 5899 5900 5900 5900 5900 5900 5900 5899 5899 5900 5900 5900 5900 5900 5900 5900 5899 5899 5898 5898 5897
5911 5911 5911 5911 5911 5911 5910 5910 5910 5909 5910 5909 5909 5908 5907 5906 5906 5905 5904 5903 5902 5901 5901 5900 5900 5900 5900 5900 5901 5901 5901 5901 5901 5901 5900 5900 5900 5900 5900 5900 5900 5900 5900 5900 5900 5899 5898 5898 5897
5910 5910 5910 5910 5910 5910 5909 5910 5909 5909 5910 5910 5909 5909 5909 5908 5907 5906 5905 5904 5904 5903 5902 5902 5902 5901 5901 5901 5902 5902 5902 5901 5901 5901 5901 5901 5900 5900 5900 5900 5900 5900 5900 5900 5899 5899 5898 5898 5897
5909 5909 5909 5910 5910 5910 5909 5910 5909 5909 5910 5910 5909 5909 5909 5908 5908 5907 5907 5906 5905 5904 5904 5903 5903 5903 5903 5903 5903 5903 5902 5902 5902 5902 5901 5901 5901 5901 5901 5900 5900 5900 5900 5900 5899 5898 5898 5897 5896
5907 5908 5908 5909 5910 5909 5909 5910 5909 5910 5909 5909 5909 5909 5909 5909 5909 5908 5908 5907 5906 5906 5905 5905 5904 5904 5904 5904 5904 5903 5903 5903 5903 5902 5902 5901 5901 5901 5900 5900 5900 5899 5899 5899 5899 5898 5897 5897 5896
5905 5907 5908 5908 5908 5908 5909 5909 5909 5908 5909 5909 5909 5909 5909 5909 5909 5909 5908 5908 5907 5907 5906 5905 5905 5905 5905 5904 5904 5904 5903 5903 5903 5902 5902 5901 5901 5900 5900 5900 5899 5899 5898 5898 5898 5897 5896 5896 5895
5903 5904 5905 5906 5906 5906 5907 5907 5908 5908 5908 5908 5908 5909 5909 5909 5909 5909 5908 5908 5908 5907 5906 5906 5906 5905 5905 5905 5904 5904 5903 5903 5903 5902 5902 5901 5900 5900 5900 5899 5899 5898 5898 5897 5897 5896 5895 5894 5893
5900 5902 5903 5903 5904 5904 5905 5905 5905 5906 5906 5907 5907 5907 5908 5908 5908 5908 5908 5908 5907 5907 5906 5906 5906 5905 5905 5904 5904 5904 5903 5903 5902 5902 5901 5901 5900 5900 5899 5898 5898 5897 5897 5896 5895 5895 5894 5893 5892
5897 5900 5900 5900 5900 5901 5903 5902 5903 5904 5904 5905 5905 5906 5906 5907 5907 5907 5907 5907 5907 5907 5906 5905 5905 5905 5905 5904 5904 5903 5903 5902 5902 5901 5901 5900 5899 5898 5898 5897 5897 5896 5896 5895 5894 5893 5893 5891 5890
5894 5896 5897 5898 5898 5898 5899 5898 5901 5901 5902 5902 5903 5903 5904 5904 5905 5906 5906 5906 5906 5906 5905 5905 5905 5904 5904 5903 5903 5902 5902 5901 5901 5900 5900 5899 5898 5897 5897 5896 5895 5895 5894 5893 5892 5892 5891 5889 5888
5890 5892 5893 5894 5894 5895 5895 5896 5897 5898 5899 5899 5900 5901 5901 5902 5902 5903 5904 5904 5904 5904 5904 5904 5904 5904 5903 5903 5902 5901 5901 5900 5900 5899 5898 5898 5897 5896 5895 5894 5893 5893 5892 5891 5890 5889 5888 5887 5886
5887 5888 5889 5890 5890 5891 5892 5893 5894 5894 5896 5897 5897 5898 5898 5900 5900 5900 5901 5902 5902 5902 5902 5902 5902 5902 5901 5901 5900 5900 5899 5899 5898 5897 5897 5896 5895 5894 5893 5892 5891 5891 5890 5889 5888 5887 5885 5884 5883
5882 5883 5884 5885 5886 5887 5888 5892 5891 5891 5892 5893 5894 5894 5895 5897 5897 5897 5898 5898 5898 5898 5899 5899 5900 5899 5899 5898 5898 5898 5897 5896 5896 5895 5894 5893 5893 5892 5891 5890 5889 5888 5887 5886 5885 5883 5882 5881 5879
5876 5877 5879 5881 5882 5883 5884 5889 5887 5888 5889 5890 5890 5891 5892 5892 5893 5894 5893 5894 5895 5895 5895 5896 5897 5897 5896 5896 5895 5895 5894 5894 5893 5892 5892 5891 5890 5889 5888 5887 5886 5885 5883 5882 5881 5879 5878 5876 5875